Weather History for International Falls, MN

Change the Weather History Date:

Tuesday, December 13, 2011

  Actual Average Record
Temperature  
Mean Temperature 24 °F 10 °F  
Max Temperature 33 °F 20 °F 45 °F (1913)
Min Temperature 15 °F 1 °F -33 °F (2010)
Degree Days  
Heating Degree Days 41 55  
Month to date heating degree days 649 673  
Since 1 July heating degree days 2769 3134  
Cooling Degree Days 0 0  
Month to date cooling degree days 0 0  
Year to date cooling degree days 207 192  
Moisture  
Dew Point 21 °F    
Average Humidity 87    
Maximum Humidity 96    
Minimum Humidity 78    
Precipitation  
Precipitation T in 0.02 in 0.43 in (1995)
Month to date precipitation T 0.36  
Year to date precipitation 19.22 23.77  
Snow  
Snow T in 0.50 in 7.10 in (1991)
Month to date snowfall 0.7 6.3  
Since 1 July snowfall 13.0 22.3  
Snow Depth 3.00 in    
Sea Level Pressure  
Sea Level Pressure 30.31 in    
Wind  
Wind Speed 4 mph (ESE)    
Max Wind Speed 10 mph    
Max Gust Speed 15 mph    
Visibility 10 miles    
Events      
T = Trace of Precipitation, MM = Missing Value Source: NWS Daily Summary

Daily Weather History Graph

Daily Weather History Graph

Search for Another Location

Airport:

Trip Planner

Search our weather history database for the weather conditions in past years. The results will help you decide how hot, cold, wet, or windy it might be!

Date:

Astronomy

Dec. 13, 2011 Rise Set
Actual Time 7:57 AM CST 4:18 PM CST
Civil Twilight 7:20 AM CST 4:54 PM CST
Nautical Twilight 6:40 AM CST 5:34 PM CST
Astronomical Twilight 6:02 AM CST 6:13 PM CST
Moon 7:43 PM CST (12/13) 9:59 AM CST (12/13)
Length of Visible Light 9h 34m
Length of Day
8h 20m
Waning Gibbous, 90% of the Moon is Illuminated
Dec 13
Waning Gibbous
Dec 17
Last Quarter
Dec 24
New
Jan 1
First Quarter
Jan 9
Full

Hourly Weather History & Observations

Time (CST) Temp. Windchill Dew Point Humidity Pressure Visibility Wind Dir Wind Speed Gust Speed Precip Events Conditions
12:55 AM 15.1 °F - 14.0 °F 95% 30.46 in 6.0 mi Calm Calm - N/A   Overcast
1:55 AM 16.0 °F - 14.0 °F 92% 30.45 in 8.0 mi Calm Calm - N/A   Overcast
2:55 AM 16.0 °F 8.8 °F 14.0 °F 92% 30.44 in 10.0 mi NE 4.6 mph - N/A   Overcast
3:55 AM 17.1 °F - 15.1 °F 92% 30.44 in 10.0 mi Calm Calm - N/A   Overcast
4:55 AM 17.1 °F - 15.1 °F 92% 30.42 in 10.0 mi Calm Calm - N/A   Overcast
5:55 AM 18.0 °F - 16.0 °F 92% 30.43 in 10.0 mi Calm Calm - N/A   Overcast
6:55 AM 19.0 °F 13.9 °F 16.0 °F 88% 30.41 in 10.0 mi East 3.5 mph - N/A   Overcast
7:16 AM 19.4 °F 12.8 °F 15.8 °F 86% 30.33 in 10.0 mi East 4.6 mph - N/A   Overcast
7:55 AM 19.0 °F - 17.1 °F 92% 30.43 in 10.0 mi Calm Calm - N/A   Overcast
8:04 AM 19.4 °F - 17.6 °F 93% 30.35 in 10.0 mi Calm Calm - N/A   Overcast
8:37 AM 19.4 °F 14.3 °F 17.6 °F 93% 30.34 in 10.0 mi East 3.5 mph - N/A   Overcast
8:55 AM 19.9 °F 13.4 °F 18.0 °F 92% 30.42 in 10.0 mi East 4.6 mph - N/A   Overcast
9:34 AM 19.4 °F 14.3 °F 17.6 °F 93% 30.33 in 10.0 mi East 3.5 mph - N/A   Overcast
9:55 AM 19.9 °F 14.9 °F 18.0 °F 92% 30.42 in 10.0 mi ESE 3.5 mph - N/A   Overcast
10:09 AM 21.2 °F 14.9 °F 17.6 °F 86% 30.34 in 10.0 mi ESE 4.6 mph - N/A   Overcast
10:18 AM 19.4 °F 12.8 °F 17.6 °F 93% 30.34 in 10.0 mi ESE 4.6 mph - N/A   Overcast
10:55 AM 21.0 °F 14.6 °F 19.0 °F 92% 30.40 in 10.0 mi ESE 4.6 mph - N/A   Overcast
11:55 AM 23.0 °F 17.0 °F 21.0 °F 92% 30.36 in 10.0 mi ESE 4.6 mph - N/A   Overcast
12:55 PM 25.0 °F 19.3 °F 21.9 °F 88% 30.34 in 10.0 mi SE 4.6 mph - N/A   Overcast
1:55 PM 27.0 °F 21.6 °F 21.9 °F 81% 30.31 in 10.0 mi SE 4.6 mph - N/A   Overcast
2:13 PM 26.6 °F 20.0 °F 23.0 °F 86% 30.23 in 10.0 mi SE 5.8 mph - N/A   Overcast
2:55 PM 28.0 °F 24.2 °F 23.0 °F 81% 30.28 in 10.0 mi SE 3.5 mph - N/A   Overcast
3:55 PM 28.0 °F 24.2 °F 24.1 °F 85% 30.27 in 10.0 mi ESE 3.5 mph - N/A   Overcast
4:55 PM 28.0 °F 22.8 °F 24.1 °F 85% 30.25 in 10.0 mi ESE 4.6 mph - N/A   Overcast
5:10 PM 28.4 °F 23.3 °F 24.8 °F 86% 30.18 in 10.0 mi ESE 4.6 mph - N/A   Overcast
5:55 PM 28.0 °F 21.7 °F 24.1 °F 85% 30.24 in 10.0 mi ESE 5.8 mph - N/A   Overcast
6:55 PM 28.9 °F 22.8 °F 25.0 °F 85% 30.22 in 10.0 mi ESE 5.8 mph - N/A   Overcast
7:31 PM 28.4 °F 23.3 °F 26.6 °F 93% 30.14 in 10.0 mi ESE 4.6 mph - N/A   Overcast
7:55 PM 30.0 °F 26.5 °F 26.1 °F 85% 30.19 in 9.0 mi SE 3.5 mph - N/A   Overcast
8:55 PM 32.0 °F 24.8 °F 30.0 °F 92% 30.17 in 10.0 mi SSE 8.1 mph - N/A   Overcast
9:55 PM 33.1 °F 27.7 °F 30.0 °F 89% 30.14 in 9.0 mi SSE 5.8 mph - N/A   Overcast
10:55 PM 33.1 °F 26.9 °F 30.9 °F 92% 30.12 in 9.0 mi SSE 6.9 mph - N/A   Overcast
11:55 PM 33.1 °F 24.9 °F 30.9 °F 92% 30.11 in 9.0 mi SSE 10.4 mph - N/A   Overcast